User: anonymous   Login
Location: Caltech
(34.1382°N, 118.1253°W)
Time: 20:05:36
(UTC-08:00)
Language:

Cosmos 2084 - Orbit

View from above orbital plane
View from above orbital plane
View from above satellite
View from above satellite

Ground track
Ground track

The orbit data is extracted from the following two-line orbital elements,

1 20663U 90055A   14329.86877589  .00001312  00000-0  15240-3 0  2875
2 20663 062.7967 102.7894 0049856 335.8881 023.9877 14.89630559320501
Epoch (UTC): 25 November 2014 20:51:02
Eccentricity: 0.0049856
inclination: 62.7967°
perigee height: 564 km
apogee height: 634 km
right ascension of ascending node: 102.7894°
argument of perigee: 335.8881°
revolutions per day: 14.89630559
mean anomaly at epoch: 23.9877°
orbit number at epoch: 32050

The dashed part of the orbit path shows where the satellite is in the earth's shadow,  

DLR